| time (UTC) | temp F | wind direction | speed MPH | gust MPH | rain 1hr in | rain 24hr in | rain mn in | humidity % | barometer mb |
| 20260901050026 | 68 | 285 | 1.0 | 5.0 | 0.00 | 0.00 | 0.00 | 70 | 1004.4 |
| 20260901044525 | 69 | 269 | 1.0 | 3.0 | 0.00 | 0.00 | 0.00 | 68 | 1004.2 |
| 20260901043025 | 70 | 292 | 1.0 | 3.0 | 0.00 | 0.00 | 0.00 | 66 | 1004.1 |
| 20260901041526 | 70 | 284 | 1.0 | 3.0 | 0.00 | 0.00 | 0.00 | 65 | 1004.1 |
| 20260901040031 | 71 | 264 | 1.0 | 3.0 | 0.00 | 0.00 | 0.00 | 63 | 1004.1 |
| 20260901034522 | 71 | 261 | 1.0 | 2.0 | 0.00 | 0.00 | 0.00 | 62 | 1004.0 |
| 20260901033023 | 72 | 223 | 0.0 | 2.0 | 0.00 | 0.00 | 0.00 | 62 | 1003.5 |
| 20260901031521 | 72 | 348 | 0.0 | 1.0 | 0.00 | 0.00 | 0.00 | 61 | 1003.3 |
| 20260901030021 | 73 | 348 | 0.0 | 2.0 | 0.00 | 0.00 | 0.00 | 61 | 1003.4 |
| 20260901024527 | 73 | 355 | 0.0 | 1.0 | 0.00 | 0.00 | 0.00 | 59 | 1003.1 |
| 20260901023022 | 74 | 355 | 0.0 | 1.0 | 0.00 | 0.00 | 0.00 | 60 | 1003.1 |
| 20260901021520 | 75 | 355 | 0.0 | 1.0 | 0.00 | 0.00 | 0.00 | 63 | 1003.0 |
| 20260901020019 | 76 | 355 | 0.0 | 1.0 | 0.00 | 0.00 | 0.00 | 64 | 1003.1 |
| 20260901014519 | 77 | 355 | 0.0 | 1.0 | 0.00 | 0.00 | 0.00 | 60 | 1003.0 |
| 20260901013021 | 77 | 355 | 0.0 | 1.0 | 0.00 | 0.00 | 0.00 | 59 | 1003.0 |
| 20260901011618 | 79 | 355 | 0.0 | 0.0 | 0.00 | 0.00 | 0.00 | 57 | 1003.1 |
| 20260901010017 | 81 | 355 | 0.0 | 1.0 | 0.00 | 0.00 | 0.00 | 51 | 1003.0 |
| 20260901004529 | 82 | 350 | 0.0 | 2.0 | 0.00 | 0.00 | 0.00 | 45 | 1003.0 |
| 20260901003014 | 83 | 5 | 0.0 | 4.0 | 0.00 | 0.00 | 0.00 | 46 | 1003.1 |
| 20260901001522 | 82 | 275 | 0.0 | 2.0 | 0.00 | 0.00 | 0.00 | 45 | 1003.2 |
| 20260901000013 | 83 | 333 | 1.0 | 5.0 | 0.00 | 0.00 | 0.00 | 43 | 1003.2 |
| 20260831234506 | 83 | 69 | 0.0 | 3.0 | 0.00 | 0.00 | 0.00 | 46 | 1003.2 |
| 20260831233002 | 84 | 122 | 0.0 | 4.0 | 0.00 | 0.00 | 0.00 | 44 | 1003.4 |
| 20260831231601 | 84 | 323 | 1.0 | 3.0 | 0.00 | 0.00 | 0.00 | 43 | 1003.6 |
| 20260831230058 | 84 | 81 | 0.0 | 4.0 | 0.00 | 0.00 | 0.00 | 43 | 1003.6 |
| 20260831224551 | 84 | 340 | 1.0 | 3.0 | 0.00 | 0.00 | 0.00 | 40 | 1003.6 |
| 20260831223047 | 83 | 160 | 1.0 | 4.0 | 0.00 | 0.00 | 0.00 | 43 | 1003.8 |
| 20260831221543 | 83 | 93 | 1.0 | 4.0 | 0.00 | 0.00 | 0.00 | 43 | 1003.7 |
| 20260831220039 | 82 | 159 | 1.0 | 4.0 | 0.00 | 0.00 | 0.00 | 44 | 1004.1 |
| 20260831214559 | 81 | 108 | 1.0 | 2.0 | 0.00 | 0.00 | 0.00 | 47 | 1004.2 |
| 20260831213032 | 80 | 88 | 1.0 | 4.0 | 0.00 | 0.00 | 0.00 | 47 | 1004.2 |
| 20260831211529 | 81 | 78 | 1.0 | 4.0 | 0.00 | 0.00 | 0.00 | 45 | 1004.1 |
| 20260831210028 | 81 | 309 | 1.0 | 4.0 | 0.00 | 0.00 | 0.00 | 49 | 1004.6 |
| 20260831204520 | 80 | 88 | 1.0 | 6.0 | 0.00 | 0.00 | 0.00 | 49 | 1004.7 |
| 20260831203015 | 79 | 346 | 1.0 | 4.0 | 0.00 | 0.00 | 0.00 | 49 | 1004.8 |
| 20260831201516 | 79 | 265 | 0.0 | 4.0 | 0.00 | 0.00 | 0.00 | 51 | 1005.0 |
| 20260831200012 | 78 | 264 | 1.0 | 4.0 | 0.00 | 0.00 | 0.00 | 53 | 1005.1 |
| 20260831194504 | 76 | 294 | 0.0 | 3.0 | 0.00 | 0.00 | 0.00 | 54 | 1005.4 |
| 20260831193004 | 76 | 327 | 1.0 | 4.0 | 0.00 | 0.00 | 0.00 | 55 | 1005.5 |
| 20260831191600 | 75 | 256 | 1.0 | 4.0 | 0.00 | 0.00 | 0.00 | 58 | 1005.5 |
| 20260831190112 | 73 | 213 | 1.0 | 3.0 | 0.00 | 0.00 | 0.00 | 62 | 1005.9 |
| 20260831184549 | 73 | 78 | 1.0 | 5.0 | 0.00 | 0.00 | 0.00 | 62 | 1006.1 |
| 20260831183057 | 71 | 241 | 1.0 | 4.0 | 0.00 | 0.00 | 0.00 | 63 | 1006.4 |
| 20260831181541 | 70 | 174 | 0.0 | 3.0 | 0.00 | 0.00 | 0.00 | 66 | 1006.6 |
| 20260831180039 | 69 | 150 | 1.0 | 3.0 | 0.00 | 0.00 | 0.00 | 66 | 1006.8 |
| 20260831174534 | 68 | 218 | 1.0 | 3.0 | 0.00 | 0.00 | 0.00 | 68 | 1007.0 |
| 20260831173031 | 67 | 192 | 0.0 | 4.0 | 0.00 | 0.00 | 0.00 | 70 | 1007.2 |
| 20260831171526 | 66 | 167 | 1.0 | 4.0 | 0.00 | 0.00 | 0.00 | 71 | 1007.3 |
| 20260831170023 | 65 | 303 | 3.0 | 8.0 | 0.00 | 0.00 | 0.00 | 72 | 1007.3 |
| 20260831164516 | 63 | 273 | 1.0 | 6.0 | 0.00 | 0.00 | 0.00 | 76 | 1007.3 |
| 20260831163033 | 62 | 169 | 1.0 | 4.0 | 0.00 | 0.00 | 0.00 | 77 | 1007.5 |
| 20260831161512 | 61 | 99 | 1.0 | 4.0 | 0.00 | 0.00 | 0.00 | 80 | 1007.7 |
| 20260831160006 | 60 | 319 | 1.0 | 5.0 | 0.00 | 0.00 | 0.00 | 81 | 1007.8 |
| 20260831154617 | 59 | 300 | 1.0 | 6.0 | 0.00 | 0.00 | 0.00 | 84 | 1008.0 |
| 20260831153056 | 58 | 338 | 1.0 | 3.0 | 0.00 | 0.00 | 0.00 | 87 | 1008.0 |
| 20260831151554 | 56 | 309 | 1.0 | 3.0 | 0.00 | 0.00 | 0.00 | 88 | 1008.1 |
| 20260831150051 | 56 | 293 | 1.0 | 3.0 | 0.00 | 0.00 | 0.00 | 89 | 1008.1 |
| 20260831144552 | 56 | 302 | 0.0 | 2.0 | 0.00 | 0.00 | 0.00 | 90 | 1008.2 |
| 20260831143059 | 55 | 24 | 0.0 | 5.0 | 0.00 | 0.00 | 0.00 | 90 | 1008.1 |
| 20260831141550 | 55 | 321 | 0.0 | 1.0 | 0.00 | 0.00 | 0.00 | 91 | 1008.2 |
| 20260831140046 | 54 | 311 | 0.0 | 3.0 | 0.00 | 0.00 | 0.00 | 91 | 1008.1 |
| 20260831134544 | 54 | 313 | 0.0 | 1.0 | 0.00 | 0.00 | 0.00 | 90 | 1008.1 |
| 20260831133046 | 54 | 313 | 0.0 | 2.0 | 0.00 | 0.00 | 0.00 | 90 | 1008.3 |
| 20260831131544 | 55 | 332 | 0.0 | 2.0 | 0.00 | 0.00 | 0.00 | 89 | 1008.4 |
| 20260831130039 | 55 | 305 | 0.0 | 3.0 | 0.00 | 0.00 | 0.00 | 89 | 1008.5 |
| 20260831124546 | 55 | 307 | 1.0 | 3.0 | 0.00 | 0.00 | 0.00 | 90 | 1008.6 |
| 20260831123036 | 55 | 44 | 0.0 | 3.0 | 0.00 | 0.00 | 0.00 | 90 | 1008.6 |
| 20260831121535 | 55 | 325 | 0.0 | 2.0 | 0.00 | 0.00 | 0.00 | 90 | 1008.7 |
| 20260831120050 | 55 | 82 | 0.0 | 2.0 | 0.00 | 0.00 | 0.00 | 90 | 1008.8 |
| 20260831114532 | 55 | 202 | 0.0 | 1.0 | 0.00 | 0.00 | 0.00 | 90 | 1008.8 |
| 20260831113030 | 55 | 202 | 0.0 | 1.0 | 0.00 | 0.00 | 0.00 | 89 | 1008.9 |
| 20260831111527 | 56 | 202 | 0.0 | 1.0 | 0.00 | 0.00 | 0.00 | 88 | 1009.0 |
| 20260831110027 | 56 | 199 | 0.0 | 5.0 | 0.00 | 0.00 | 0.00 | 88 | 1008.9 |
| 20260831104523 | 56 | 344 | 0.0 | 3.0 | 0.00 | 0.00 | 0.00 | 88 | 1009.0 |
| 20260831103023 | 56 | 9 | 0.0 | 1.0 | 0.00 | 0.00 | 0.00 | 88 | 1009.2 |
| 20260831101517 | 57 | 156 | 0.0 | 1.0 | 0.00 | 0.00 | 0.00 | 87 | 1009.4 |
| 20260831100014 | 57 | 146 | 0.0 | 2.0 | 0.00 | 0.00 | 0.00 | 86 | 1009.5 |
| 20260831094511 | 58 | 16 | 0.0 | 2.0 | 0.00 | 0.00 | 0.00 | 86 | 1009.6 |
| 20260831093010 | 58 | 17 | 1.0 | 3.0 | 0.00 | 0.00 | 0.00 | 86 | 1009.9 |
| 20260831091608 | 58 | 319 | 0.0 | 2.0 | 0.00 | 0.00 | 0.00 | 86 | 1009.9 |
| 20260831090005 | 58 | 332 | 0.0 | 2.0 | 0.00 | 0.00 | 0.00 | 85 | 1009.9 |
| 20260831084508 | 59 | 221 | 0.0 | 2.0 | 0.00 | 0.00 | 0.00 | 85 | 1010.1 |
| 20260831083001 | 59 | 209 | 1.0 | 2.0 | 0.00 | 0.00 | 0.00 | 85 | 1010.3 |
| 20260831081604 | 59 | 205 | 0.0 | 2.0 | 0.00 | 0.00 | 0.00 | 85 | 1010.4 |
| 20260831080057 | 59 | 332 | 0.0 | 2.0 | 0.00 | 0.00 | 0.00 | 85 | 1010.6 |
| 20260831074555 | 60 | 312 | 0.0 | 3.0 | 0.00 | 0.00 | 0.00 | 84 | 1010.6 |
| 20260831073056 | 60 | 65 | 0.0 | 3.0 | 0.00 | 0.00 | 0.00 | 84 | 1010.6 |
| 20260831071555 | 60 | 339 | 1.0 | 3.0 | 0.00 | 0.00 | 0.00 | 84 | 1010.6 |
| 20260831070051 | 60 | 246 | 0.0 | 2.0 | 0.00 | 0.00 | 0.00 | 83 | 1010.8 |
| 20260831064548 | 61 | 74 | 0.0 | 2.0 | 0.00 | 0.00 | 0.00 | 83 | 1011.0 |
| 20260831063046 | 61 | 17 | 1.0 | 2.0 | 0.00 | 0.00 | 0.00 | 82 | 1011.0 |
| 20260831061546 | 61 | 311 | 0.0 | 2.0 | 0.00 | 0.00 | 0.00 | 82 | 1011.0 |
| 20260831060047 | 61 | 296 | 1.0 | 4.0 | 0.00 | 0.00 | 0.00 | 82 | 1011.1 |
| 20260831054542 | 61 | 271 | 1.0 | 3.0 | 0.00 | 0.00 | 0.00 | 82 | 1011.4 |
| 20260831053040 | 62 | 235 | 0.0 | 3.0 | 0.00 | 0.00 | 0.00 | 81 | 1011.7 |
| 20260831051552 | 61 | 11 | 0.0 | 3.0 | 0.00 | 0.00 | 0.00 | 81 | 1011.7 |